Flag for U.S.A. Weather past 2 weeks in Fullerton, California, U.S.A.

Now
96 °F

Sunny.


Feels Like: 96 °F
Forecast: 66 / 94 °F
Wind: 8 mph from Southwest

Location: Fullerton Municipal Airport

Current Time: Jul 24, 2014 at 4:22:49 PM

Latest Report: Jul 24, 2014 at 3:53 PM


Visibility: 10 mi

Pressure: 29.74 "Hg

Humidity: 29%

Dew point: 59 °F

Location of FullertonLocation

Historic Weather in Fullerton — Graph

°F

Fullerton temperature yesterday

Maximum temperature yesterday: 93 °F (at 2:53 PM)
Minimum temperature yesterday: 67 °F (at 5:53 AM)
Average temperature yesterday: 79 °F

Past Weeks' High & Low Weather Summary

 TemperatureHumidityPressure
High93 °F (Jul 23, 2:53 PM)85% (Jul 12, 4:53 AM)30.05 "Hg (Jul 12, 4:53 AM)
Low65 °F (Jul 18, 5:53 AM)25% (Jul 23, 3:53 PM)29.76 "Hg (Jul 24, 2:53 PM)
Average74 °F63%29.95 "Hg
* Reported Jul 9 2:53 PM — Jul 24 2:53 PM, Fullerton, Weather by CustomWeather, © 2014

Note: Actual official high and low records may vary slightly from our data, if they occured in-between our weather recording intervals... More about our weather records

Advertising

Fullerton weather history for previous 24 hours

 ConditionsComfort  
Time TempWeatherWind HumidityBarometerVisibility
2:53 PM
Jul 24
92 °FSunny.9 mph36%29.76 "Hg10 mi
1:53 PM92 °FSunny.10 mph35%29.78 "Hg10 mi
12:53 PM92 °FSunny.8 mph36%29.79 "Hg10 mi
11:53 AM92 °FSunny.3 mph30%29.80 "Hg10 mi
10:53 AM88 °FSunny.No wind35%29.82 "Hg10 mi
9:53 AM83 °FSunny.5 mph44%29.83 "Hg10 mi
8:53 AM77 °FSunny.No wind56%29.85 "Hg10 mi
7:53 AM73 °FSunny.No wind64%29.86 "Hg10 mi
6:53 AM69 °FClear.No wind70%29.86 "Hg10 mi
5:53 AM66 °FClear.No wind78%29.85 "Hg10 mi
4:53 AM67 °FClear.No wind76%29.83 "Hg10 mi
3:53 AM68 °FClear.No wind76%29.84 "Hg10 mi
2:53 AM69 °FClear.No wind73%29.85 "Hg10 mi
1:53 AM70 °FClear.No wind71%29.86 "Hg10 mi
12:53 AM71 °FClear.No wind68%29.88 "Hg10 mi
11:53 PM
Jul 23
73 °FClear.No wind64%29.89 "Hg10 mi
10:53 PM74 °FClear.3 mph60%29.89 "Hg10 mi
9:53 PM75 °FClear.No wind55%29.88 "Hg10 mi
8:53 PM77 °FSunny.5 mph52%29.87 "Hg10 mi
7:53 PM80 °FSunny.5 mph45%29.87 "Hg10 mi
6:53 PM84 °FSunny.6 mph40%29.87 "Hg10 mi
5:53 PM87 °FSunny.8 mph32%29.87 "Hg10 mi
4:53 PM90 °FSunny.9 mph25%29.88 "Hg10 mi
Weather by CustomWeather, © 2014

See weather overviewHow to use our weather pages